Regional Weather Roundup
Issued by NWS Mt. Holly, NJ

Home | Current Version | Previous Version | Text Only | Print | Product List | Glossary On
Versions: 1 2 3 4 5 6 7 8 9 10 11 12 13 14 15 16 17 18 19 20 21 22 23 24 25 26 27 28 29 30 31 32 33 34 35 36 37 38 39 40 41 42 43 44 45 46 47 48 49 50
574
ASUS41 KPHI 290012
RWRPHI

REGIONAL WEATHER ROUNDUP
NATIONAL WEATHER SERVICE MOUNT HOLLY NJ
800 PM EDT THU JUL 28 2016

NOTE:  "FAIR" INDICATES FEW OR NO CLOUDS BELOW 12,000 FEET WITH NO
SIGNIFICANT WEATHER AND/OR OBSTRUCTIONS TO VISIBILITY.

 * = STATION DOES NOT REPORT PRECIPITATION (E.G. RAIN, SNOW, ETC.)
        OR FOG.

NJZ015>026-290100-
SOUTHERN NEW JERSEY

CITY           SKY/WX    TMP DP  RH WIND       PRES   REMARKS
POMONA         LGT RAIN  75  72  90 SE7       29.87F FOG
6HR MIN TEMP:  73; 6HR MAX TEMP:  90; 6HR PCP:  1.13;

WILDWOOD*        N/A    N/A N/A N/A MISG        N/A  THUNDER
MILLVILLE      LGT RAIN  74  71  91 SE9       29.85F
MOUNT HOLLY    CLOUDY    74  72  93 SE3       29.86F FOG
TRENTON        CLOUDY    75  71  87 CALM      29.86F
6HR MIN TEMP:  75; 6HR MAX TEMP:  88; 6HR PCP:  0.09;


$$
NJZ001>014-290100-
NORTHERN NEW JERSEY

CITY           SKY/WX    TMP DP  RH WIND       PRES   REMARKS
SUSSEX         LGT RAIN  73  72  96 CALM      29.90F FOG
ANDOVER*         N/A     75  70  84 CALM      29.90F
MORRISTOWN     MOCLDY    75  72  88 CALM      29.89S
NEWARK         LGT RAIN  80  67  64 W7        29.86F
TETERBORO      CLOUDY    81  67  62 W8        29.86F
CALDWELL       MOCLDY    79  71  76 NW3       29.88S
SOMERVILLE     CLOUDY    77  73  87 CALM      29.86S
ALLAIRE*       CLOUDY    74  70  87 SW3       29.88F
TOMS RIVER*    MOCLDY    74  72  93 CALM      29.87F

$$
PAZ043-044-047-054-055-060>062-066>071-290100-
EASTERN PENNSYLVANIA

CITY           SKY/WX    TMP DP  RH WIND       PRES   REMARKS
PHILADELPHIA   CLOUDY    76  72  87 SE6       29.87S
6HR MIN TEMP:  74; 6HR MAX TEMP:  95; 6HR PCP:  0.32;

NORTH PHILA    CLOUDY    76  71  85 CALM      29.87F
BLUE BELL*     CLOUDY    72  72 100 CALM      29.86S
DOYLESTOWN     CLOUDY    72  72 100 S3        29.87F
QUAKERTOWN*    CLOUDY    73  73 100 CALM      29.90R
PERKASIE*      FAIR      72  72 100 CALM      29.90S
POTTSTOWN      CLOUDY    74  72  93 CALM      29.89S
LANCASTER      CLOUDY    75  71  87 N5        29.89S
COATESVILLE    CLOUDY    73  72  94 CALM      29.91R
READING        CLOUDY    74  70  87 W3        29.88R
6HR MIN TEMP:  72; 6HR MAX TEMP:  84; 6HR PCP:  0.14;

ALLENTOWN      CLOUDY    75  72  90 CALM      29.90R
6HR MIN TEMP:  75; 6HR MAX TEMP:  94; 6HR PCP:  0.57;

MOUNT POCONO   LGT RAIN  70  66  87 S3        29.96S
6HR MIN TEMP:  70; 6HR MAX TEMP:  85; 6HR PCP: TRACE;

HAZLETON       CLOUDY    72  66  83 CALM      29.97R
LEHIGHTON      DRIZZLE   72  72 100 CALM      29.91R
WILKES BARRE   MOCLDY    78  67  68 VRB3      29.90R

$$
DEZALL-MDZ008-012-015-019-020-290100-
DELAWARE AND EASTERN MARYLAND

CITY           SKY/WX    TMP DP  RH WIND       PRES   REMARKS
WILMINGTON     CLOUDY    76  71  85 E5        29.87R
6HR MIN TEMP:  74; 6HR MAX TEMP:  88; 6HR PCP:  0.93;

GEORGETOWN     LGT RAIN  74  73  97 SE6       29.88F FOG
6HR MIN TEMP:  73; 6HR MAX TEMP:  83; 6HR PCP:  2.05;

EASTON         CLOUDY    75  75 100 SE7       29.91R
PATUXENT       LGT RAIN  77  73  87 SE5       29.85F
OCEAN CITY       N/A    N/A N/A N/A MISG      29.86R
WALLOPS ISLAND FAIR      82  79  90 SE8       29.85F THUNDER HX  92
CAMBRIDGE      CLOUDY    72  72 100 E3        29.88S

$$
PAZ001-021-NYZ056-072-MDZ011-DCZ001-290100-
OTHER NEARBY LOCATIONS

CITY           SKY/WX    TMP DP  RH WIND       PRES   REMARKS
HARRISBURG     LGT RAIN  77  71  82 E9        29.87F
STATE COLLEGE  RAIN      70  68  94 S5        29.92F
WILLIAMSPORT   MOCLDY    82  65  56 SW6       29.85R
BINGHAMTON     CLOUDY    77  62  59 N3        29.93R
NEW YORK CITY  CLOUDY    80  67  64 W7        29.90F
BALTIMORE      CLOUDY    76  72  87 NE9       29.85R
WASHINGTON DC  MOCLDY    80  72  76 NE15      29.85R

$$




USA.gov is the U.S. government's official web portal to all federal, state and local government web resources and services.